sat.trackr.live / text

‹ back to catalog

STARLINK-36824

NORAD 67953 · 2026-037X

PAYLOAD ACTIVE UNKNOWN

§ Identity

Operator
Country
US
Launch date
2026-02-24
Launch site
AFETR
Launch vehicle
Mass (kg)
RCS (m²)

Purposes: comms

External: N2YO · Heavens-Above · Gunter

§ Orbital elements

Epoch: 2026-09-19T22:17:00.575232Z

Period
94.27 min
Inclination
43.0022°
Eccentricity
0.0001125
Mean motion
15.27588805 rev/d
Perigee alt
482.3 km
Apogee alt
483.8 km
Semi-major
6,861.2 km
B*
4.3908e-4
RAAN
174.0686°
Arg perigee
273.8239°
Mean anomaly
86.2484°
Rev number
3,304

§ Raw data

STARLINK-368241 67953U 26037X   26262.92847888  .00011843  00000+0  43908-3 0  99932 67953  43.0022 174.0686 0001125 273.8239  86.2484 15.27588805 33049

JSON: /api/v1/satellites/67953 · /tle

For live sub-satellite position, see the globe view (requires WebGL).

§ Visibility from observer

Set your observer location to see the next 7 days of passes ≥ 10°. The values pass through the URL so the page stays shareable.

No JS? Fill the form by hand. The geolocation button needs JavaScript.